Location: Colonia Mina de C?rbuni
(46.1667°N, 22.7167°E)
Time: 16:36:18
(UTC+00:00)

Vanguard 1 Rocket - Pass Details

Date: 19 April 2024
Orbit: 650 x 4220 km, 34.3° (Epoch: 22 May)

Event Time Altitude Azimuth Distance (km) Brightness Sun altitude
Rises 23:44:14 0° 267° (W) 5,098 11.0 -30.1°
Enters shadow 23:44:16 - 266° (W) 5,092 11.0 -30.1°
Exits shadow 00:13:07 - 165° (SSE) 7,221 11.6 -27.9°
Sets 00:18:48 0° 157° (SSE) 8,220 11.9 -27.4°
